sat.trackr.live / text

‹ back to catalog

O3B FM16

NORAD 43232 · 2018-024B

PAYLOAD ACTIVE UNKNOWN

§ Identity

Operator
Country
O3B
Launch date
2018-03-09
Launch site
FRGUI
Launch vehicle
Mass (kg)
RCS (m²)

Purposes: comms

External: N2YO · Heavens-Above · Gunter

§ Orbital elements

Epoch: 2026-09-02T02:28:12.890208Z

Period
287.93 min
Inclination
0.0579°
Eccentricity
0.0002565
Mean motion
5.00115980 rev/d
Perigee alt
8,062.2 km
Apogee alt
8,069.6 km
Semi-major
14,444.0 km
B*
0.0000e+0
RAAN
359.8489°
Arg perigee
160.3115°
Mean anomaly
199.8517°
Rev number
15,479

§ Raw data

O3B FM161 43232U 18024B   26245.10292697 -.00000015  00000+0  00000+0 0  99992 43232   0.0579 359.8489 0002565 160.3115 199.8517  5.00115980154793

JSON: /api/v1/satellites/43232 · /tle

For live sub-satellite position, see the globe view (requires WebGL).

§ Visibility from observer

Set your observer location to see the next 7 days of passes ≥ 10°. The values pass through the URL so the page stays shareable.

No JS? Fill the form by hand. The geolocation button needs JavaScript.